Flag for Saudi Arabia Weather past 2 weeks in Medina, Saudi Arabia

Now
73 °F

Clear.


Feels Like: 74 °F
Forecast: 66 / 96 °F
Wind: No wind

Location: Madinah

Current Time: Mar 1, 2015 at 2:24:14 AM

Latest Report: Mar 1, 2015 at 2:00 AM


Visibility: 5 mi

Pressure: 29.98 "Hg

Humidity: 13%

Dew point: 19 °F

Location of MedinaLocation

Historic Weather in Medina — Graph

°F

Medina temperature yesterday

Maximum temperature yesterday: 93 °F (at 6:00 PM)
Minimum temperature yesterday: 63 °F (at 7:00 AM)
Average temperature yesterday: 79 °F

Past Weeks' High & Low Weather Summary

 TemperatureHumidityPressure
High93 °F (Feb 28, 6:00 PM)64% (Feb 19, 4:00 AM)30.24 "Hg (Feb 19, 4:00 AM)
Low52 °F (Feb 14, 7:00 AM)6% (Feb 28, 4:00 PM)29.80 "Hg (Feb 19, 3:00 PM)
Average71 °F26%30.02 "Hg
* Reported Feb 14 1:00 AM — Mar 1 1:00 AM, Medina, Weather by CustomWeather, © 2015

Note: Actual official high and low records may vary slightly from our data, if they occured in-between our weather recording intervals... More about our weather records

Advertising

Medina weather history for previous 24 hours

 ConditionsComfort  
Time TempWeatherWind HumidityBarometerVisibility
1:00 AM
Sun, Mar 1
73 °FClear.No wind13%30.01 "Hg5 mi
12:00 AM75 °FClear.No wind12%30.01 "Hg5 mi
11:00 PM
Sat, Feb 28
79 °FClear.No wind11%30.01 "Hg4 mi
10:00 PM84 °FClear.5 mph10%30.01 "Hg4 mi
9:00 PM86 °FClear.No wind8%30.01 "Hg4 mi
8:00 PM86 °FClear.No wind8%29.98 "Hg4 mi
7:00 PM90 °FClear.5 mph7%29.98 "Hg5 mi
6:00 PM93 °FSunny.7 mph6%29.95 "Hg10 mi
5:00 PM91 °FSunny.3 mph6%29.95 "Hg6 mi
4:00 PM91 °FSunny.9 mph6%29.98 "Hg5 mi
3:00 PM88 °FSunny.5 mph8%29.98 "Hg5 mi
2:00 PM88 °FSunny.5 mph8%30.01 "Hg4 mi
1:00 PM84 °FSunny.No wind9%30.04 "Hg4 mi
12:00 PM82 °FSunny.7 mph10%30.07 "Hg4 mi
11:00 AM79 °FSunny.12 mph12%30.09 "Hg5 mi
10:00 AM73 °FSunny.6 mph14%30.12 "Hg4 mi
9:00 AM70 °FSunny.No wind13%30.12 "Hg4 mi
8:00 AM64 °FSunny.5 mph16%30.12 "Hg6 mi
7:00 AM63 °FSunny.5 mph19%30.12 "Hg10 mi
6:00 AM64 °FClear.2 mph16%30.09 "Hg10 mi
4:00 AM68 °FClear.2 mph14%30.09 "Hg10 mi
2:00 AM72 °FClear.6 mph15%30.09 "Hg10 mi
Weather by CustomWeather, © 2015

See weather overviewHow to use our weather pages